Regional Weather Roundup
Issued by NWS Grand Forks, ND

Home | Current Version | Previous Version | Text Only | Print | Product List | Glossary On
Versions: 1 2 3 4 5 6 7 8 9 10 11 12 13 14 15 16 17 18 19 20 21 22 23 24 25 26 27 28 29 30 31 32 33 34 35 36 37 38 39 40 41 42 43 44 45 46 47 48 49 50
000
ASUS43 KFGF 210310
RWRFGF
PRAIRIE TO PINES  WEATHER ROUNDUP
NATIONAL WEATHER SERVICE EASTERN NORTH DAKOTA/GRAND FORKS ND
1000 PM CDT FRI OCT 20 2017

 **SATELLITE DATA USED TO AUGMENT SKY COVER AT AUTOMATED STATIONS**
 *****  WEATHER ACROSS EASTERN NORTH DAKOTA  *****

CITY           SKY/WX    TMP DP  RH WIND       PRES   REMARKS
GRAND FORKS    MOCLDY    70  55  59 S21G39    29.37R
GRAND FRKS AFB FAIR      68  54  60 S20G30    29.36R
DEVILS LAKE    FAIR      65  53  65 S18G24    29.30F
FARGO          FAIR      70  55  59 S22G40    29.42F
WAHPETON ARPT  NOT AVBL
$$

 ***** WEATHER ACROSS CENTRAL AND WESTERN NORTH DAKOTA  *****

CITY           SKY/WX    TMP DP  RH WIND       PRES   REMARKS
BISMARCK       FAIR      68  53  58 S22       29.25S
MINOT          FAIR      66  48  52 SE14      29.19F
JAMESTOWN      FAIR      65  53  65 S14       29.35S
MINOT AFB      FAIR      51  42  71 SE9       29.18F
GARRISON         N/A     59  49  69 SE8       29.20F
WILLISTON      CLEAR     63  41  45 CALM      29.16S
DICKINSON      FAIR      62  36  37 SW12      29.19S
HETTINGER      FAIR      56  35  45 S8        29.26R
$$

 *****  OTHER AIRPORT OBSERVATIONS IN OUR AREA  *****

CITY           SKY/WX    TMP DP  RH WIND       PRES   REMARKS
WALHALLA       FAIR     N/A N/A N/A SE12      29.32S
GRAFTON AIRPOR FAIR      68  54  60 S16G26    29.38R
VALLEY CITY AR FAIR      68  55  64 S17G25    29.39S
CANDO          FAIR      57  52  82 SE12      29.30S
CAVALIER APRT  FAIR      68  55  64 S14G20    29.33S
GWINNER        CLEAR     68  55  64 S20G26    29.41F
SHEYENNE NWR     N/A     67  55  65 S14       29.95S
ROLLA          FAIR      55  48  76 S10       29.28S
 ***** THE ABOVE OBSERVATIONS ARE NON NWS ARE NOT QUALITY
       CONTROLLED AND MAY MIS-REPORT RAIN FOR SNOW...
$$

  *****  WEATHER ACROSS NORTHERN MINNESOTA  *****

CITY           SKY/WX    TMP DP  RH WIND       PRES   REMARKS
FLAG ISLAND    FAIR      57  48  72 SE20      29.45S
WARROAD        FAIR      64  54  68 S13       29.46S
ROSEAU         FAIR      70  54  56 S13G20    29.44S
HALLOCK        FAIR      70  54  56 S21G29    29.37S
THF RVR FALLS  FAIR      70  53  54 S23G31    29.45S
BAUDETTE       FAIR      68  51  54 S16G30    29.50S
WASKISH        FAIR      70  50  49 S15G30    29.52S
CROOKSTON      FAIR      72  54  53 S26G33    29.42R
STEPHEN NDAWN    N/A     70  54  56 S20         N/A
GREENBUSH NDAW   N/A     70  54  56 S18         N/A
$$
  *****  WEATHER ACROSS CENTRAL AND WEST MINNESOTA  *****

CITY           SKY/WX    TMP DP  RH WIND       PRES   REMARKS
FOSSTON        FAIR      68  48  49 S25G33    29.49S
BEMIDJI        FAIR      68  49  51 S21G26    29.54S
PARK RAPIDS    FAIR      67  50  54 S18G32    29.58R
ELBOW LAKE     FAIR      65  55  69 SE18G25   29.54S
WADENA         FAIR      64  52  63 S18G24    29.58R
DETROIT LAKES  FAIR      68  52  56 S20       29.54S
MOORHEAD       FAIR      70  54  56 S26G32    29.45S
FERGUS FALLS   FAIR      66  54  63 S18G24    29.52S
MORRIS MN      FAIR      64  55  72 S14       29.54S
STAPLES        FAIR      66  48  52 S21G28    29.60F
$$
  *****  WEATHER ELSEWHERE ACROSS MINNESOTA  *****

CITY           SKY/WX    TMP DP  RH WIND       PRES   REMARKS
DULUTH         FAIR      65  43  44 S20G26    29.73R
INTRNTL FALLS  FAIR      68  47  46 S8G20     29.57S
ELY            FAIR      64  43  45 S14       29.70S
CLOQUET        FAIR      66  37  34 S13G18    29.72S
WHEATON        FAIR      66  54  63 SE17      29.51S
BRAINERD       FAIR      65  47  52 S15       29.65S
HIBBING        FAIR      65  42  43 S9G22     29.68R
ALEXANDRIA     FAIR      66  53  63 S18G30    29.60S
SAINT CLOUD    FAIR      65  49  56 SE13      29.67R
MINNEAPOLIS    FAIR      68  50  52 S17       29.73F
$$

  *****  WEATHER ACROSS SOUTH DAKOTA  *****

CITY           SKY/WX    TMP DP  RH WIND       PRES   REMARKS
SIOUX FALLS    MOCLDY    70  59  68 S22G32    29.58S
BROOKINGS      CLOUDY    69  58  67 S20G33    29.55S
WATERTOWN      MOCLDY    67  58  72 S26G33    29.50S
HURON          FAIR      70  57  63 S20G26    29.44F
SISSETON         N/A     68  57  68 S18       29.46F
ABERDEEN       FAIR      68  57  68 S22G28    29.40F
MITCHELL       FAIR      71  58  63 S21       29.48F
PIERRE         FAIR      62  53  72 SE13      29.35S
MOBRIDGE       FAIR      65  54  67 SE15      29.29S
RAPID CITY     FAIR      62  38  40 SW8       29.36R
$$

  *****  SOME WEATHER IN NEARBY STATES *****

CITY           SKY/WX    TMP DP  RH WIND       PRES   REMARKS
GLASGOW MT     FAIR      56  33  42 W30G39    29.33R
GREAT FALLS MT FAIR      39  28  64 SW15      29.57S
CHEYENNE WY    FAIR      55  27  34 NW16G24   29.60R
SCOTTSBLUFF NE FAIR      52  41  66 N9        29.46R
OMAHA NE       MOCLDY    70  56  61 S25G35    29.72S
DES MOINES IA  FAIR      64  52  64 S18       29.84R
DAVENPORT IA   FAIR      67  45  45 S15G24    29.98S
CHICAGO IL     CLOUDY    65  48  54 S12       30.05R
EAU CLAIRE WI  FAIR      65  45  48 S10       29.81S
LA CROSSE WI   FAIR      68  45  43 S14       29.86R
$$

  *****  SOME NATIONAL WEATHER *****

CITY           SKY/WX    TMP DP  RH WIND       PRES   REMARKS
LA GUARDIA NY  FAIR      67  42  40 NW8       30.20R
RALEIGH NC     FAIR      57  53  86 CALM      30.26R
ATLANTA GA     MOCLDY    64  47  53 E3        30.22S
NEW ORLEANS LA FAIR      75  73  93 E9        30.07S
OKLAHOMA CITY  MOCLDY    72  63  73 S14G23    29.85S
ALBUQUERQUE NM MOCLDY    63  36  36 S12       29.81S
SALT LAKE CITY FAIR      45  28  51 N5        29.94R
LOS ANGELES CA FAIR      66  57  72 E7        29.90R
BOISE ID       MOCLDY    46  32  58 W5        29.95R
SEATTLE WA     FAIR      48  44  86 SW16G26   29.91R
$$

*** WEATHER ACROSS MANITOBA...SASKATCHEWAN AND ONTARIO ***
                ***ONTARIO***

CITY           SKY/WX    TMP DP  RH WIND       PRES   REMARKS
GERALDTON      PTCLDY    48  45  87 E6        29.81S
THUNDER BAY    PTCLDY    50  48  93 NE7       29.76S
SIOUX LOOKOUT  MOCLDY    63  46  55 SE7       29.60S
TORONTO        PTCLDY    55  34  44 SW6       30.16R
BIG TROUT LK   CLEAR     39  32  75 E13G20    29.79S
PICKLE LAKE    NOT AVBL
DRYDEN         MOCLDY    66  48  52 S16G22    29.57S
KENORA         MOCLDY    66  50  55 S14G25    29.49S
$$
                *** MANITOBA***

CITY           SKY/WX    TMP DP  RH WIND       PRES   REMARKS
BRANDON        PTCLDY    52  46  82 SE6       29.21F
DAUPHIN        MOCLDY    48  41  76 W7        29.18F
ISLAND LAKE    CLOUDY    46  37  71 E21G29    29.51S
PILOT MOUND      N/A     61  50  67 S18         N/A
THE PAS        PTCLDY    43  37  81 E10G18    29.25F
THOMPSON       MOCLDY    37  34  87 E13G20    29.50F
WINNIPEG       MOCLDY    68  54  60 S22G30    29.31F
LYNN LAKE      CLOUDY    36  34  93 E16G23    29.44S
CHURCHILL      CLOUDY    36  30  80 SE24      29.86F
GILLAM         CLOUDY    36  30  80 E9G21     29.68F
$$
                ***SASKATCHEWAN***

CITY           SKY/WX    TMP DP  RH WIND       PRES   REMARKS
ESTEVAN        PTCLDY    54  36  50 SE8       29.17F
KINDERSLEY     CLOUDY    46  37  71 NW14G24   29.31R
LLOYDMINSTER   LGT RAIN  41  37  87 NW15G21   29.35R
PRINCE ALBERT  PTCLDY    43  36  75 NE7       29.26R
REGINA         CLOUDY    54  32  43 E5        29.15F
YORKTON        CLOUDY    54  39  58 S9        29.16S
N. BATTLEFORD  MOCLDY    48  37  66 NW12      29.29R
LA RONGE       MOCLDY    41  37  87 E7        29.31R
SASKATOON      MOCLDY    41  36  81 N13       29.23R
SWIFT CURRENT  CLOUDY    50  34  53 W18G24    29.26R
$$
NOTE: THESE ARE AUTOMATED STATIONS WITH LIMITED QUALITY CONTROL
      "FAIR" INDICATES FEW OR NO CLOUDS BELOW 12,000 FEET WITH NO
      SIGNIFICANT WEATHER AND/OR OBSTRUCTIONS TO VISIBILITY.
      SKY/WX - SKY CONDITION AND SIGNIFICANT WEATHER.
      TMP - AIR TEMPERATURE.    DP   - DEWPOINT TEMPERATURE.
      RH  - RELATIVE HUMIDITY.  PRES - PRESSURE.
      HX  - HEAT INDEX.         WCI  - WIND CHILL INDEX.
$




USA.gov is the U.S. government's official web portal to all federal, state and local government web resources and services.